Location: Unspecified
(35.7250°N, 0.0000°E)
Time: 15:33:40
(UTC+00:00)

Explorer 7 - Pass Details

Date: 18 June 2019
Orbit: 485 x 680 km, 50.3° (Epoch: 21 August)

Event Time Altitude Azimuth Distance (km) Brightness Sun altitude
Rises 09:57:15 0° 240° (WSW) 2,761 10.2 60.6°
Reaches altitude 10° 09:59:29 10° 244° (WSW) 1,899 9.5 61.0°
Maximum altitude 10:03:47 59° 324° (NW) 710 8.0 61.8°
Drops below altitude 10° 10:08:23 10° 44° (NE) 2,027 10.0 62.7°
Sets 10:10:49 0° 48° (NE) 2,966 10.7 63.2°
